Location: Hebron
(33.0265°N, 96.8636°W)
Time: 17:23:24
(UTC+00:00)

OAO 2 Rocket - Pass Details

Date: 10 July 2022
Orbit: 676 x 744 km, 35.0° (Epoch: 16 August)

Event Time Altitude Azimuth Distance (km) Brightness Sun altitude
Exits shadow 10:41:13 - 193° (SSW) 2,843 6.0 -9.1°
Reaches altitude 10° 10:44:13 10° 169° (S) 2,158 5.6 -8.5°
Maximum altitude 10:46:18 13° 145° (SE) 1,982 5.7 -8.2°
Drops below altitude 10° 10:48:24 10° 120° (ESE) 2,143 6.2 -7.8°
Sets 10:52:10 0° 91° (E) 3,047 7.7 -7.1°
